Stations météo

réclame
Mon MeteoGroup
Isle Of Portland, Grande-Bretagne (3857): Température de l'air & dewpoint: 18.02.2018 21:00:00 - 24.02.2018 21:00:00 (GMT)Isle Of Portland, Grande-Bretagne (3857): Vitesse du vent & gusts: 18.02.2018 21:00:00 - 24.02.2018 21:00:00 (GMT)Isle Of Portland, Grande-Bretagne (3857): Direction du vent: 18.02.2018 21:00:00 - 24.02.2018 21:00:00 (GMT)Isle Of Portland, Grande-Bretagne (3857): reduced air pressure: 18.02.2018 21:00:00 - 24.02.2018 21:00:00 (GMT)Isle Of Portland, Grande-Bretagne (3857): visibility: 18.02.2018 21:00:00 - 24.02.2018 21:00:00 (GMT)Isle Of Portland, Grande-Bretagne (3857): Quantités de précipitations: 18.02.2018 21:00:00 - 24.02.2018 21:00:00 (GMT)
Date & Time tt [°C] td [°C] ff [km/h] ff [knt] fx [km/h] fx [knt] dd ppp [hPa] vv [km] rr [mm]
24.02.2018 21:00:00 3,6 -2,5 46 25 59 32 E 1020,8 18 0,0
24.02.2018 20:00:00 3,9 -2,8 44 24 61 33 E 1020,3 18 0,0
24.02.2018 19:00:00 4,5 -2,5 42 23 57 31 E 1019,9 19 0,0
24.02.2018 18:00:00 5,1 -1,5 41 22 50 27 E 1019,1 17 0,0
24.02.2018 17:00:00 5,6 -1,7 35 19 - - E 1018,9 20 0,0
24.02.2018 16:00:00 6,3 -1,0 29 16 - - E 1018,6 19 0,0
24.02.2018 15:00:00 6,3 -1,1 28 15 - - ENE 1018,9 19 0,0
24.02.2018 14:00:00 6,4 -1,4 28 15 - - E 1019,0 20 0,0
24.02.2018 13:00:00 4,8 -2,3 34 18 - - E 1019,4 13 0,0
24.02.2018 12:00:00 4,4 -2,5 29 16 - - ENE 1019,6 21 0,0
24.02.2018 11:00:00 3,3 -1,7 29 16 - - E 1019,3 24 0,0
24.02.2018 10:00:00 2,3 -1,7 34 18 - - ENE 1019,1 15 0,0
24.02.2018 09:00:00 1,3 -1,5 34 18 - - ENE 1019,2 14 0,0
24.02.2018 08:00:00 0,6 -2,0 31 17 - - ENE 1018,9 10 0,0
24.02.2018 07:00:00 0,6 -1,8 31 17 - - ENE 1018,2 11 0,0
24.02.2018 06:00:00 0,6 -1,7 34 18 - - ENE 1017,6 10 0,0
24.02.2018 05:00:00 0,1 -2,2 31 17 - - ENE 1017,6 11 0,0
24.02.2018 04:00:00 0,7 -1,5 31 17 - - ENE 1017,4 10 0,0
24.02.2018 03:00:00 1,4 -1,0 34 18 - - ENE 1017,4 10 0,0
24.02.2018 02:00:00 2,4 -0,4 34 18 - - E 1017,5 10 0,0
24.02.2018 01:00:00 2,5 -0,1 34 18 - - E 1017,5 9 0,0
24.02.2018 00:00:00 2,2 -0,2 37 20 52 28 E 1017,2 8 0,0
23.02.2018 23:00:00 2,6 -0,4 39 21 54 29 E 1017,3 9 0,0
23.02.2018 22:00:00 2,8 -1,1 42 23 63 34 E 1017,2 12 0,0
23.02.2018 21:00:00 2,9 -1,0 42 23 55 30 E 1017,3 16 0,0
23.02.2018 20:00:00 3,0 -1,8 44 24 57 31 E 1017,0 17 0,0
23.02.2018 19:00:00 3,4 -1,9 44 24 55 30 E 1017,1 21 0,0
23.02.2018 18:00:00 3,7 -1,4 41 22 54 29 E 1017,2 20 0,0
23.02.2018 17:00:00 3,9 -1,0 42 23 52 28 E 1017,1 17 0,0
23.02.2018 16:00:00 4,2 -0,7 39 21 52 28 E 1017,5 22 0,0
23.02.2018 15:00:00 4,4 -1,1 41 22 59 32 E 1018,0 14 0,0
23.02.2018 14:00:00 4,3 -1,4 50 27 63 34 E 1018,4 19 0,0
23.02.2018 13:00:00 4,3 -1,3 52 28 67 36 E 1018,8 19 0,0
23.02.2018 12:00:00 3,7 -0,2 41 22 55 30 E 1019,6 13 0,0
23.02.2018 11:00:00 3,1 -0,5 42 23 54 29 E 1019,7 12 0,0
23.02.2018 10:00:00 1,8 -1,2 35 19 48 26 E 1020,2 11 0,0
23.02.2018 09:00:00 1,5 -1,1 35 19 46 25 ENE 1020,2 11 0,0
23.02.2018 08:00:00 1,0 -1,3 34 18 - - ENE 1020,3 9 0,0
23.02.2018 07:00:00 1,4 -1,1 29 16 - - ENE 1020,0 8 0,0
23.02.2018 06:00:00 1,7 -0,7 31 17 46 25 ENE 1020,1 9 0,0
23.02.2018 05:00:00 2,1 -0,6 28 15 - - ENE 1020,0 10 0,0
23.02.2018 04:00:00 2,3 -0,4 28 15 - - ENE 1020,1 11 0,0
23.02.2018 03:00:00 2,4 -0,4 29 16 - - ENE 1020,4 12 0,0
23.02.2018 02:00:00 2,0 -0,4 28 15 - - ENE 1020,7 12 0,0
23.02.2018 01:00:00 2,3 -0,7 31 17 - - E 1020,7 13 0,0
23.02.2018 00:00:00 2,3 -1,2 34 18 48 26 E 1020,9 19 0,0
22.02.2018 23:00:00 2,7 -1,4 34 18 46 25 E 1021,2 24 0,0
22.02.2018 22:00:00 3,1 -1,9 35 19 46 25 E 1021,5 25 0,0
22.02.2018 21:00:00 3,1 -0,9 24 13 - - ENE 1021,6 15 0,0
22.02.2018 20:00:00 4,2 -1,3 26 14 - - E 1021,6 16 0,0
22.02.2018 19:00:00 4,3 -1,4 28 15 - - E 1021,7 20 0,0
22.02.2018 18:00:00 4,3 -0,6 24 13 - - E 1021,4 15 0,0
22.02.2018 17:00:00 4,6 -0,9 22 12 - - E 1021,3 16 0,0
22.02.2018 16:00:00 4,9 -0,4 16 9 - - E 1021,6 12 0,0
22.02.2018 15:00:00 4,7 -1,1 21 11 - - E 1022,0 12 0,0
22.02.2018 14:00:00 4,8 -0,3 24 13 - - E 1022,5 13 0,0
22.02.2018 13:00:00 4,1 -1,2 26 14 - - E 1023,1 11 0,0
22.02.2018 12:00:00 4,2 -0,9 28 15 - - E 1023,4 14 0,0
22.02.2018 11:00:00 5,1 0,3 29 16 - - E 1023,6 16 0,0
22.02.2018 10:00:00 4,6 1,2 29 16 - - E 1023,3 15 0,0
22.02.2018 09:00:00 3,7 2,4 26 14 - - ENE 1023,3 8 0,0
22.02.2018 08:00:00 3,4 2,3 22 12 - - ENE 1023,3 7 0,0
22.02.2018 07:00:00 3,2 2,1 18 10 - - NE 1023,2 8 0,0
22.02.2018 06:00:00 3,0 1,8 18 10 - - NE 1023,0 7 0,0
22.02.2018 05:00:00 2,7 1,6 18 10 - - NE 1023,1 7 0,0
22.02.2018 04:00:00 2,7 1,4 16 9 - - ENE 1023,3 7 0,0
22.02.2018 03:00:00 3,0 1,9 18 10 - - ENE 1023,6 7 0,0
22.02.2018 02:00:00 3,5 2,2 18 10 - - NE 1024,1 5 0,0
22.02.2018 01:00:00 3,6 2,2 16 9 - - ENE 1024,4 8 0,0
22.02.2018 00:00:00 4,3 2,5 21 11 - - E 1024,7 9 0,0
21.02.2018 23:00:00 4,4 2,6 24 13 - - ENE 1025,0 8 0,0
21.02.2018 22:00:00 4,2 2,4 21 11 - - NE 1025,5 7 0,0
21.02.2018 21:00:00 4,3 2,1 21 11 - - ENE 1025,7 9 0,0
21.02.2018 20:00:00 4,5 1,3 15 8 - - NE 1025,7 10 0,0
21.02.2018 19:00:00 5,3 1,1 21 11 - - NE 1025,6 10 0,0
21.02.2018 18:00:00 5,8 1,7 9 5 - - N 1025,3 10 0,0
21.02.2018 17:00:00 6,3 1,7 4 2 - - ESE 1025,4 11 0,0
21.02.2018 16:00:00 6,5 1,5 8 4 - - E 1025,5 11 0,0
21.02.2018 15:00:00 6,6 1,0 13 7 - - ESE 1025,9 12 0,0
21.02.2018 14:00:00 7,1 1,5 18 10 - - ESE 1026,5 16 0,0
21.02.2018 13:00:00 7,0 0,7 21 11 - - E 1027,1 18 0,0
21.02.2018 12:00:00 6,6 1,5 21 11 - - E 1027,5 10 0,0
21.02.2018 11:00:00 6,0 1,4 22 12 - - ENE 1027,6 11 0,0
21.02.2018 10:00:00 5,3 1,8 24 13 - - ENE 1027,6 11 0,0
21.02.2018 09:00:00 4,6 1,6 22 12 - - ENE 1027,3 12 0,0
21.02.2018 08:00:00 4,1 1,5 24 13 - - ENE 1027,1 18 0,0
21.02.2018 07:00:00 4,3 1,5 21 11 - - ENE 1027,0 27 0,0
21.02.2018 06:00:00 5,1 2,2 24 13 - - ENE 1026,6 30 0,0
21.02.2018 05:00:00 5,2 2,5 21 11 - - E 1026,3 35 0,0
21.02.2018 04:00:00 5,7 3,6 18 10 - - ENE 1026,0 24 0,0
21.02.2018 03:00:00 6,6 3,4 26 14 - - NE 1025,8 27 0,0
21.02.2018 02:00:00 6,5 3,4 18 10 - - N 1026,0 20 0,0
21.02.2018 01:00:00 6,6 3,3 18 10 - - N 1025,9 19 0,0
21.02.2018 00:00:00 6,4 3,2 18 10 - - NNW 1025,6 26 0,0
20.02.2018 23:00:00 6,4 3,3 21 11 - - NNW 1025,4 19 0,0
20.02.2018 22:00:00 6,8 3,0 24 13 - - NNW 1025,3 24 0,0
20.02.2018 21:00:00 7,4 2,7 31 17 - - N 1025,0 25 0,0
20.02.2018 20:00:00 7,6 2,9 28 15 - - NNW 1024,7 26 0,0
20.02.2018 19:00:00 7,8 2,9 28 15 - - NNW 1024,2 30 0,0
20.02.2018 18:00:00 8,5 1,7 26 14 - - N 1023,9 30 0,0
20.02.2018 17:00:00 9,5 1,5 31 17 52 28 N 1023,4 20 0,0
20.02.2018 16:00:00 10,0 2,4 34 18 50 27 N 1023,0 30 0,0
20.02.2018 15:00:00 10,2 2,1 39 21 55 30 N 1022,8 24 0,0
20.02.2018 14:00:00 10,0 2,5 44 24 57 31 N 1022,3 18 0,0
20.02.2018 13:00:00 10,1 2,8 39 21 57 31 N 1023,0 25 0,0
20.02.2018 12:00:00 8,8 3,5 46 25 67 36 NNW 1023,0 21 0,0
20.02.2018 11:00:00 8,8 3,7 46 25 61 33 NNW 1022,7 18 0,0
20.02.2018 10:00:00 8,5 4,1 44 24 55 30 NW 1022,6 28 0,0
20.02.2018 09:00:00 7,9 5,8 34 18 50 27 NW 1022,3 25 0,0
20.02.2018 08:00:00 8,1 6,7 35 19 - - NNW 1021,0 30 0,0
20.02.2018 07:00:00 8,6 7,6 28 15 - - NW 1020,9 40 0,0
20.02.2018 06:00:00 8,2 7,6 18 10 - - NW 1020,3 15 0,0
20.02.2018 05:00:00 7,9 7,3 16 9 - - NNW 1020,0 12 0,0
20.02.2018 04:00:00 7,5 6,9 16 9 - - NNW 1019,9 10 0,0
20.02.2018 03:00:00 8,1 7,5 26 14 - - NW 1019,7 16 0,0
20.02.2018 02:00:00 8,3 7,7 21 11 - - NW 1019,7 18 0,0
20.02.2018 01:00:00 8,2 7,7 13 7 - - NW 1019,7 20 0,0
20.02.2018 00:00:00 8,7 8,3 16 9 - - NNW 1019,8 7 0,0
19.02.2018 23:00:00 8,6 8,3 21 11 - - NW 1019,1 15 0,0
19.02.2018 22:00:00 8,6 8,4 18 10 - - WNW 1019,0 11 0,0
19.02.2018 21:00:00 8,8 8,5 18 10 - - WNW 1018,6 10 0,0
19.02.2018 20:00:00 8,9 8,6 22 12 - - W 1018,8 10 0,0
19.02.2018 19:00:00 8,7 8,5 21 11 - - W 1018,6 9 0,0
19.02.2018 18:00:00 9,4 9,2 16 9 - - WNW 1018,6 15 0,0
19.02.2018 17:00:00 9,4 9,2 16 9 - - WNW 1018,2 13 0,0
19.02.2018 16:00:00 9,3 9,2 22 12 - - W 1018,0 15 0,0
19.02.2018 15:00:00 9,4 9,4 24 13 - - W 1017,9 16 0,0
19.02.2018 14:00:00 9,7 9,7 16 9 - - WNW 1017,8 12 0,0
19.02.2018 13:00:00 9,2 9,2 18 10 - - WNW 1018,2 11 0,0
19.02.2018 12:00:00 9,0 9,0 11 6 - - WNW 1018,5 9 0,0
19.02.2018 11:00:00 8,9 8,9 13 7 - - NW 1018,4 8 0,0
19.02.2018 10:00:00 8,5 8,5 11 6 - - NW 1018,3 0,8 0,0
19.02.2018 09:00:00 8,2 8,2 11 6 - - WNW 1018,5 0,5 0,0
19.02.2018 08:00:00 8,1 8,1 11 6 - - WNW 1018,5 0,4 0,0
19.02.2018 07:00:00 8,0 8,0 15 8 - - W 1018,2 0,3 0,0
19.02.2018 06:00:00 7,9 7,9 11 6 - - W 1018,1 0,1 0,2
19.02.2018 05:00:00 7,8 7,8 11 6 - - W 1018,2 0,2 0,0
19.02.2018 04:00:00 7,6 7,6 5 3 - - W 1018,5 0,6 0,4
19.02.2018 03:00:00 7,5 7,5 5 3 - - W 1018,7 3,8 0,2
19.02.2018 02:00:00 7,5 7,5 4 2 - - WNW 1019,1 7 0,2
19.02.2018 01:00:00 7,5 7,5 4 2 - - WNW 1019,4 5 0,0
19.02.2018 00:00:00 7,5 7,5 0 0 - - N 1019,7 24 0,0
18.02.2018 23:00:00 7,5 7,5 4 2 - - NNE 1019,8 2,1 0,0
18.02.2018 22:00:00 7,4 7,4 11 6 - - E 1019,8 2,0 0,2
18.02.2018 21:00:00 7,5 7,5 13 7 - - ESE 1020,0 0,3 0,0

tt = Température de l'air
td = dewpoint
ff = Vitesse du vent
fx = gusts
dd = Direction du vent
ppp = reduced air pressure
vv = visibility
rr = Quantités de précipitations

stations d'obs. à proximité